CST,Max TemperatureF,Mean TemperatureF,Min TemperatureF,Max Dew PointF,MeanDew PointF,Min DewpointF,Max Humidity, Mean Humidity, Min Humidity, Max Sea Level PressureIn, Mean Sea Level PressureIn, Min Sea Level PressureIn, Max VisibilityMiles, Mean VisibilityMiles, Min VisibilityMiles, Max Wind SpeedMPH, Mean Wind SpeedMPH, Max Gust SpeedMPH,PrecipitationIn, CloudCover, Events, WindDirDegrees
2012-11-1,62,51,39,42,38,34,85,67,48,30.06,29.98,29.93,10,10,6,15,8,18,0.00,0,,29
2012-11-2,53,43,33,38,36,32,96,76,56,30.14,29.98,29.89,10,8,4,21,10,24,0.00,0,,53
2012-11-3,58,43,27,38,32,26,92,66,40,30.25,30.20,30.14,10,9,5,14,5,16,0.00,2,,334
2012-11-4,60,49,37,38,36,34,92,66,40,30.17,30.09,30.01,10,10,10,13,7,18,T,3,,253
2012-11-5,48,43,37,38,34,32,92,74,56,30.22,30.15,30.07,10,10,6,24,11,30,0.00,5,,350
2012-11-6,60,45,30,36,25,17,85,52,19,30.17,30.11,30.03,10,10,10,33,15,79,T,1,,308
2012-11-7,59,44,28,29,26,21,75,52,28,30.21,30.10,29.95,10,10,10,15,7,21,0.00,0,,175
2012-11-8,65,51,37,33,30,28,76,54,31,29.94,29.89,29.83,10,10,6,13,6,17,0.00,0,,168
2012-11-9,51,42,33,40,35,31,100,82,63,29.86,29.78,29.62,10,5,2,16,8,20,0.00,3,,21
2012-11-10,77,53,29,57,41,24,100,67,33,29.77,29.54,29.39,10,7,1,32,14,41,0.65,3,Rain-Thunderstorm,243
2012-11-11,33,26,19,25,14,9,85,62,38,30.28,30.03,29.77,10,10,10,30,17,37,0.00,3,,323
2012-11-12,45,31,17,17,13,10,74,50,25,30.40,30.34,30.22,10,10,10,23,10,28,0.00,0,,271
2012-11-13,56,40,23,25,18,11,60,41,22,30.38,30.31,30.23,10,10,10,12,6,16,0.00,0,,191
2012-11-14,57,40,23,29,24,18,81,54,26,30.32,30.25,30.18,10,10,10,13,5,16,0.00,1,,205
2012-11-15,57,43,29,32,29,26,82,59,35,30.46,30.32,30.18,10,10,10,20,6,23,0.00,3,,40
2012-11-16,56,40,24,33,30,21,92,65,38,30.46,30.36,30.25,10,10,10,17,7,23,0.00,0,,167
2012-11-17,63,50,37,39,33,29,76,56,36,30.23,30.14,30.06,10,10,10,21,12,29,0.00,0,,177
2012-11-18,57,49,40,37,33,28,70,57,43,30.08,30.02,29.96,10,10,10,18,10,23,0.00,0,,170
2012-11-19,65,49,33,37,33,28,89,62,34,30.19,30.09,29.98,10,10,8,17,8,22,0.00,0,,297
2012-11-20,66,48,29,35,31,24,85,58,30,30.27,30.18,30.11,10,10,9,15,6,18,0.00,0,,216
2012-11-21,72,56,39,41,36,33,85,55,25,30.09,29.94,29.76,10,10,10,25,12,36,0.00,0,,189
2012-11-22,59,46,32,37,30,21,82,57,32,30.38,30.01,29.73,10,10,10,31,14,37,0.00,0,,301
2012-11-23,38,28,18,22,12,10,74,55,35,30.61,30.51,30.39,10,10,10,25,11,32,0.00,0,,319
2012-11-24,50,37,23,23,19,13,68,50,32,30.37,30.05,29.86,10,10,10,17,9,26,0.00,0,,192
2012-11-25,48,39,29,31,25,19,78,58,37,30.14,30.01,29.92,10,10,10,15,8,17,0.00,1,,34
2012-11-26,32,23,14,25,21,13,92,81,69,30.51,30.39,30.14,10,8,1,21,10,26,0.01,5,Snow,18
2012-11-27,46,30,13,26,20,13,100,71,42,30.48,30.32,30.19,10,9,5,21,8,28,0.00,0,,234
2012-11-28,50,32,13,29,23,13,92,66,39,30.40,30.26,30.07,10,10,9,14,5,18,0.00,0,,188
2012-11-29,61,42,22,29,26,21,96,62,27,30.06,29.99,29.90,10,10,10,10,5,13,0.00,0,,220
2012-11-30,51,39,26,30,28,22,85,64,42,30.13,30.03,29.93,10,10,9,15,8,18,0.00,0,,79